Flag for Belarus Weather past 2 weeks in Barysaw, Belarus

Now
34 °F

Fog.


Feels Like: 34 °F
Forecast: 37 / 42 °F
Wind: No wind

Location: Minsk

Current Time: Mar 1, 2015 at 10:51:41 AM

Latest Report: Mar 1, 2015 at 10:30 AM


Visibility: 3 mi

Pressure: 30.04 "Hg

Humidity: 100%

Dew point: 34 °F

Location of BarysawLocation

Historic Weather in Barysaw — Graph

°F

Barysaw temperature yesterday

Maximum temperature yesterday: 34 °F (at 11:30 AM)
Minimum temperature yesterday: 32 °F (at 12:00 AM)
Average temperature yesterday: 33 °F

Past Weeks' High & Low Weather Summary

 TemperatureHumidityPressure
High43 °F (Feb 22, 3:30 PM)100% (Feb 14, 10:30 AM)30.86 "Hg (Feb 14, 10:30 AM)
Low1 °F (Feb 17, 6:30 AM)26% (Feb 16, 4:00 PM)29.68 "Hg (Feb 21, 9:00 PM)
Average32 °F86%30.13 "Hg
* Reported Feb 14 9:00 AM — Mar 1 9:30 AM, Barysaw, Weather by CustomWeather, © 2015

Note: Actual official high and low records may vary slightly from our data, if they occured in-between our weather recording intervals... More about our weather records

Advertising

Barysaw weather history for previous 24 hours

 ConditionsComfort  
Time TempWeatherWind HumidityBarometerVisibility
9:30 AM
Sun, Mar 1
34 °FFog.No wind100%30.04 "Hg3 mi
9:00 AM34 °FFog.No wind100%30.04 "Hg2 mi
8:58 AM34 °FFog.No wind100%30.04 "Hg2 mi
8:30 AM34 °FOvercast.No wind100%30.04 "Hg4 mi
8:00 AM34 °FFog.No wind100%30.04 "Hg3 mi
7:30 AM34 °FFog.1 mph100%30.04 "Hg3 mi
7:00 AM34 °FFog.3 mph100%30.07 "Hg3 mi
6:30 AM34 °FFog.3 mph100%30.04 "Hg2 mi
6:00 AM34 °FFog.No wind100%30.04 "Hg2 mi
5:30 AM34 °FFog.No wind100%30.07 "Hg3 mi
5:00 AM34 °FFog.No wind93%30.07 "Hg3 mi
4:30 AM34 °FFog.No wind100%30.07 "Hg3 mi
4:00 AM34 °FOvercast.No wind100%30.07 "Hg4 mi
3:30 AM34 °FFog.No wind100%30.07 "Hg2 mi
3:00 AM34 °FFog.No wind100%30.07 "Hg2 mi
2:30 AM34 °FFog.No wind100%30.07 "Hg2 mi
2:00 AM34 °FFog.No wind100%30.07 "Hg3 mi
1:30 AM34 °FOvercast.1 mph100%30.07 "Hg4 mi
1:00 AM34 °FLight rain. Overcast.No wind100%30.07 "Hg4 mi
12:30 AM34 °FFog.No wind100%30.07 "Hg3 mi
12:00 AM34 °FOvercast.No wind100%30.07 "Hg4 mi
11:30 PM
Sat, Feb 28
34 °FOvercast.No wind100%30.07 "Hg4 mi
11:00 PM34 °FLow clouds.No wind100%30.07 "Hg4 mi
10:30 PM34 °FLow clouds.No wind100%30.07 "Hg4 mi
10:00 PM34 °FOvercast.1 mph100%30.07 "Hg4 mi
9:30 PM34 °FOvercast.3 mph100%30.04 "Hg4 mi
9:00 PM34 °FOvercast.1 mph100%30.04 "Hg4 mi
8:30 PM34 °FFog.No wind100%30.04 "Hg3 mi
8:00 PM34 °FOvercast.No wind100%30.04 "Hg5 mi
7:30 PM34 °FOvercast.1 mph100%30.04 "Hg6 mi
7:00 PM34 °FOvercast.No wind100%30.04 "Hg5 mi
6:30 PM34 °FLight rain. More clouds than sun.No wind100%30.01 "Hg4 mi
6:00 PM34 °FMostly cloudy.No wind100%30.01 "Hg6 mi
5:30 PM34 °FLow clouds.1 mph100%30.01 "Hg6 mi
5:00 PM34 °FLow clouds.1 mph100%30.01 "Hg4 mi
4:30 PM34 °FLight rain. Low clouds.1 mph100%30.01 "Hg6 mi
4:00 PM34 °FLight rain. Low clouds.3 mph100%30.01 "Hg5 mi
3:30 PM34 °FLight rain. Low clouds.3 mph100%30.01 "Hg4 mi
3:00 PM34 °FLight rain. Fog.3 mph100%30.01 "Hg3 mi
2:30 PM34 °FLight rain. Fog.3 mph100%30.01 "Hg3 mi
2:00 PM34 °FLight rain. Fog.3 mph100%30.01 "Hg2 mi
1:30 PM34 °FLight rain. Fog.3 mph100%30.01 "Hg2 mi
1:00 PM34 °FLight rain. Fog.1 mph100%30.01 "Hg2 mi
12:30 PM34 °FLight snow. Fog.3 mph100%30.01 "Hg2 mi
12:00 PM34 °FLight snow. Fog.3 mph93%30.01 "Hg2 mi
11:30 AM34 °FLight snow. Fog.3 mph93%30.01 "Hg1 mi
11:00 AM32 °FLight snow. Ice fog.1 mph100%30.01 "Hg2 mi
10:30 AM32 °FLight snow. Ice fog.No wind100%30.01 "Hg1 mi
10:00 AM32 °FLight snow. Ice fog.No wind100%29.98 "Hg1 mi
Weather by CustomWeather, © 2015

See weather overviewHow to use our weather pages